Blue Grass Airport
KLEX : now visible

Airfield :











YOU CAN JOIN US ON...

 
LOGIN :

Register | Disclaimer

   EN    FR    IT 

 









Legend :    VFR   Marginal VFR   IFR   Intensive IFR   Very Intensive IFR
Visi :
Ceiling :
>= 8 km
>= 3000ft
5 to 8 km
1000 to 3000 ft
1500m to 5 km
500 to 1000 ft
800 to 1500m
200 to 500 ft
< 800m
< 200 ft
Symbols :   Thunderstorms  Fog  Heavy snow  Heavy precipitations  Wind > 20 kt






- Airport Elevation : 979 ft
- IATA code : LEX


KLEX - Blue Grass

CURRENT METAR :
  • 261154Z 18004KT 10SM CLR 08/07 A3014 RMK AO2 SLP205 70003 T00830067 10094 20072 53010

EXPIRED METARs :
  • 261054Z 17005KT 10SM CLR 09/07 A3013 RMK AO2 SLP200 T00890067
  • 260954Z 17005KT 10SM CLR 08/07 A3012 RMK AO2 SLP196 T00780067

TAF KLEX
Valid from the 26 at 12:00 until the 27 at 12:00 UTC


261143Z 2612/2712 17005KT P6SM SKC
FM261500 23008KT P6SM SCT250
FM270000 18007KT P6SM FEW250
KZID FIR / North America



MET'MAP, your aeronautical weather chart ! - Copyright ORBIFLY December 2007 - Disclaimer

ORBIFLY MET'MAP TEAM :

Programming & Development : Alexandra Zaïnal
Concept & original design : Baudouin d'Aumeries
Assistance for programming : Marc-Olivier Méhu
Technical & hardware support : Manuel Goepfert

Contact : metmap@orbifly.com




SOURCES & CREDITS :

   NOAA       Earth
Advisory